Marshfield, WI

4:45 PM CDT on July 20, 2017 (GMT -0500)
Marshfield Municipal

Weather History for KMFI - March, 2014

Change the Weather History Date:

Sunday, March 30, 2014

  Actual Average Record
Temperature  
Mean Temperature 41 °F -  
Max Temperature 55 °F 47 °F 76 °F (1986)
Min Temperature 28 °F 26 °F -6 °F (1969)
Degree Days  
Heating Degree Days 24    
Moisture  
Dew Point 28 °F    
Average Humidity 62    
Maximum Humidity 78    
Minimum Humidity 41    
Precipitation  
Precipitation 0.00 in - - ()
Sea Level Pressure  
Sea Level Pressure 30.04 in    
Wind  
Wind Speed 10 mph (South)    
Max Wind Speed 18 mph    
Max Gust Speed -    
Visibility 10 miles    
Events      
Averages and records for this station are not official NWS values.
T = Trace of Precipitation, MM = Missing Value Source: NWS Daily Summary

Daily Weather History Graph

Daily Weather History Graph

Search for Another Location

Airport or City:

Trip Planner

Search our weather history database for the weather conditions in past years. The results will help you decide how hot, cold, wet, or windy it might be!

Date:

Astronomy

Mar. 30, 2014 Rise Set
Actual Time 6:45 AM CDT 7:25 PM CDT
Civil Twilight 6:15 AM CDT 7:55 PM CDT
Nautical Twilight 5:41 AM CDT 8:30 PM CDT
Astronomical Twilight 5:04 AM CDT 9:06 PM CDT
Moon 6:31 AM CDT (3/30) 7:39 PM CDT (3/30)
Length of Visible Light 13h 39m
Length of Day
12h 40m
Waning Crescent, 0% of the Moon is Illuminated
Mar 30
Waning Crescent
Mar 30
New
Apr 7
First Quarter
Apr 15
Full
Apr 22
Last Quarter

Hourly Weather History & Observations

Time (CDT) Temp. Windchill Dew Point Humidity Pressure Visibility Wind Dir Wind Speed Gust Speed Precip Events Conditions
12:54 AM 30.0 °F 21.7 °F 23.0 °F 75% 30.22 in 10.0 mi SSE 9.2 mph - N/A   Clear
1:54 AM 28.9 °F 20.4 °F 21.9 °F 75% 30.21 in 10.0 mi South 9.2 mph - N/A   Clear
2:54 AM 28.9 °F 19.8 °F 21.9 °F 75% 30.18 in 10.0 mi South 10.4 mph - N/A   Clear
3:54 AM 28.9 °F 21.1 °F 21.9 °F 75% 30.15 in 10.0 mi SSE 8.1 mph - N/A   Clear
4:54 AM 28.0 °F 18.6 °F 21.9 °F 78% 30.14 in 10.0 mi SSE 10.4 mph - N/A   Clear
5:54 AM 28.9 °F 19.2 °F 23.0 °F 78% 30.15 in 10.0 mi SSE 11.5 mph - N/A   Clear
6:54 AM 30.0 °F 20.0 °F 23.0 °F 75% 30.13 in 10.0 mi SSE 12.7 mph - N/A   Partly Cloudy
7:54 AM 30.0 °F 20.0 °F 23.0 °F 75% 30.13 in 10.0 mi South 12.7 mph - N/A   Partly Cloudy
8:54 AM 34.0 °F 24.2 °F 25.0 °F 70% 30.10 in 10.0 mi South 15.0 mph - N/A   Partly Cloudy
9:54 AM 37.0 °F 27.7 °F 27.0 °F 67% 30.08 in 10.0 mi South 16.1 mph - N/A   Clear
10:54 AM 39.0 °F 29.6 °F 28.0 °F 65% 30.04 in 10.0 mi South 18.4 mph - N/A   Clear
11:54 AM 43.0 °F 35.7 °F 28.9 °F 58% 30.02 in 10.0 mi South 15.0 mph - N/A   Clear
12:54 PM 45.0 °F 38.2 °F 30.0 °F 56% 30.00 in 10.0 mi South 15.0 mph - N/A   Clear
1:54 PM 48.9 °F - 30.0 °F 48% 29.98 in 10.0 mi South 13.8 mph - N/A   Clear
2:54 PM 50.0 °F - 30.0 °F 46% 29.95 in 10.0 mi SSW 9.2 mph - N/A   Clear
3:54 PM 52.0 °F - 30.0 °F 43% 29.94 in 10.0 mi SW 8.1 mph - N/A   Clear
4:54 PM 54.0 °F - 30.9 °F 41% 29.94 in 10.0 mi SW 11.5 mph - N/A   Clear
5:54 PM 52.0 °F - 32.0 °F 47% 29.93 in 10.0 mi SW 8.1 mph - N/A   Clear
6:54 PM 48.9 °F - 32.0 °F 52% 29.94 in 10.0 mi South 6.9 mph - N/A   Clear
7:54 PM 50.0 °F - 32.0 °F 50% 29.95 in 10.0 mi SSE 3.5 mph - N/A   Clear
8:54 PM 46.9 °F - 32.0 °F 56% 29.96 in 10.0 mi SE 3.5 mph - N/A   Clear
9:54 PM 46.9 °F - 32.0 °F 56% 29.96 in 10.0 mi SSE 6.9 mph - N/A   Clear
10:54 PM 46.0 °F 41.9 °F 32.0 °F 58% 29.96 in 10.0 mi SSE 8.1 mph - N/A   Clear
11:54 PM 44.1 °F 40.1 °F 33.1 °F 65% 29.96 in 10.0 mi SE 6.9 mph - N/A   Clear